User: anonymous   Login
Location: Unspecified
(0.0000°N, 0.0000°E)
Time: 10:32:54
(UTC+00:00)
Language:

USA 270 - Orbit

View from above orbital plane
View from above orbital plane
View from above satellite
View from above satellite

Ground track
Ground track

The orbit data is extracted from the following two-line orbital elements,

1 41744U 16052A   18224.87743731 0.00000000  00000-0  00000-0 0    04
2 41744   0.1890  95.7166 0003303 344.8498  15.1414  1.00504740    00
Epoch (UTC): 12 August 2018 21:03:30
Eccentricity: 0.0003303
inclination: 0.1890°
perigee height: 35707 km
apogee height: 35735 km
right ascension of ascending node: 95.7166°
argument of perigee: 344.8498°
revolutions per day: 1.00504740
mean anomaly at epoch: 15.1414°
orbit number at epoch: 0

The dashed part of the orbit path shows where the satellite is in the earth's shadow,  

DLR